Home > Weather > Manassas > Past weeks

Flag for USA Past Weather in Manassas, Virginia, USA — Yesterday and Last 2 Weeks

Now
66 °F

Clear.


Feels Like: 66 °F
Forecast: 61 / 83 °F
Wind: No wind

Location: Manassas Municipal

Current Time: Jun 29, 2016 at 11:20:05 PM

Latest Report: Jun 29, 2016 at 10:55 PM


Visibility: 10 mi

Pressure: 30.03 "Hg

Humidity: 83%

Dew Point: 61 °F

Location of ManassasLocation

Past Weather in Manassas — Graph

°F

Manassas Temperature Yesterday

Maximum temperature yesterday: 88 °F (at 2:45 PM)
Minimum temperature yesterday: 66 °F (at 11:15 PM)
Average temperature yesterday: 75 °F

High & Low Weather Summary for the Past Weeks

 TemperatureHumidityPressure
High90 °F (Jun 20, 2:55 PM)100% (Jun 16, 6:35 AM)30.37 "Hg (Jun 16, 6:35 AM)
Low55 °F (Jun 19, 5:55 AM)28% (Jun 18, 7:45 AM)29.65 "Hg (Jun 16, 5:45 PM)
Average71 °F83%30.01 "Hg
* Reported Jun 14 9:55 PM — Jun 29 9:45 PM, Manassas, Weather by CustomWeather, © 2016

Note: Actual official high and low records may vary slightly from our data, if they occured in-between our weather recording intervals... More about our weather records

Advertising

Manassas Weather History for the Previous 24 Hours

Scroll right to see more
 ConditionsComfort  
Time TempWeatherWind HumidityBarometerVisibility
9:45 PM
Wed, Jun 29
70 °FClear.6 mph64%30.01 "Hg10 mi
8:45 PM73 °FSunny.2 mph57%29.99 "Hg10 mi
7:55 PM77 °FSunny.6 mph51%29.97 "Hg10 mi
6:55 PM81 °FSunny.5 mph42%29.96 "Hg10 mi
4:45 PM81 °FSunny.17 mph42%29.96 "Hg10 mi
3:45 PM81 °FPassing clouds.12 mph45%29.96 "Hg10 mi
2:45 PM82 °FPassing clouds.13 mph45%29.95 "Hg10 mi
1:45 PM81 °FScattered clouds.14 mph45%29.96 "Hg10 mi
12:45 PM81 °FPassing clouds.12 mph48%29.96 "Hg10 mi
11:48 AM79 °FPartly sunny.13 mph51%29.96 "Hg10 mi
10:55 AM79 °FSunny.5 mph58%29.97 "Hg10 mi
9:45 AM75 °FSunny.12 mph65%29.96 "Hg10 mi
8:45 AM73 °FSunny.5 mph69%29.97 "Hg10 mi
6:50 AM66 °FSunny.6 mph94%29.94 "Hg10 mi
6:15 AM64 °FClear.No wind100%29.94 "Hg10 mi
5:35 AM64 °FClear.3 mph100%29.92 "Hg10 mi
5:15 AM64 °FClear.6 mph94%29.91 "Hg10 mi
4:35 AM63 °FClear.No wind100%29.91 "Hg3 mi
3:55 AM64 °FClear.No wind100%29.90 "Hg5 mi
3:35 AM64 °FClear.No wind100%29.91 "Hg10 mi
3:15 AM64 °FClear.3 mph100%29.91 "Hg10 mi
2:55 AM64 °FClear.3 mph100%29.91 "Hg5 mi
2:35 AM64 °FClear.No wind100%29.90 "Hg10 mi
2:15 AM64 °FClear.No wind100%29.90 "Hg10 mi
1:55 AM66 °FClear.No wind100%29.90 "Hg10 mi
1:35 AM66 °FClear.No wind94%29.90 "Hg10 mi
1:15 AM66 °FClear.No wind94%29.91 "Hg10 mi
12:55 AM66 °FClear.No wind100%29.91 "Hg10 mi
12:35 AM66 °FClear.No wind100%29.92 "Hg10 mi
12:15 AM66 °FClear.No wind100%29.92 "Hg10 mi
11:55 PM
Tue, Jun 28
66 °FClear.No wind100%29.92 "Hg10 mi
11:35 PM66 °FClear.No wind100%29.93 "Hg10 mi
11:15 PM66 °FPassing clouds.No wind100%29.92 "Hg10 mi
Weather by CustomWeather, © 2016

See weather overviewHow to use our weather pages